EUTELSAT 172B

Last updated on Thu Mar 05 2026 00:02:58 GMT+0000 (Coordinated Universal Time)

1 42741U 17029B 26063.54766952 -.00000017 00000+0 00000+0 0 9995 2 42741 0.0194 154.2913 0000140 131.3870 245.7531 1.00272243 32695
UTC large
Height (km)
Speed (km/s)
/
Latitude / Longitude
Inclination (degrees)
Orbital Period (minutes)
Azimuth
Elevation
Range (km)
Doppler Factor

Next 0 passes for location: London (51.5072 / 0.1276)

Sorry there are no passes over London.